GTRIP EGJB-EGLC

Flight info

Callsign GTRIP
Flight time 0h 33m
Altitude 27000
Route ORIST L982 TELTU UM185 OCK DCT GOXUL DCT BIG DCT LCS02 DCT TODBI DCT ODLEG
Aircraft C750/M-SBDE3FGHRWXY/S

Departure

Time 2026-05-06 19:26
Airport Guernsey Airport (EGJB)

Arrival

Time 2026-05-06 20:00
Airport London City Airport (EGLC)
Time Latitude Longitude Altitude Speed Heading
2026-05-06 19:06 49.43257 -2.59845 319 ft 0 kts 89°
2026-05-06 19:22 49.43260 -2.59839 319 ft 1 kts 63°
2026-05-06 19:22 49.43264 -2.59838 320 ft 1 kts 23°
2026-05-06 19:22 49.43273 -2.59847 318 ft 2 kts 311°
2026-05-06 19:22 49.43276 -2.59883 319 ft 5 kts 276°
2026-05-06 19:23 49.43299 -2.59921 319 ft 6 kts 343°
2026-05-06 19:23 49.43339 -2.59952 317 ft 7 kts 286°
2026-05-06 19:23 49.43337 -2.60048 317 ft 12 kts 263°
2026-05-06 19:23 49.43331 -2.60202 316 ft 18 kts 268°
2026-05-06 19:24 49.43327 -2.60439 312 ft 26 kts 268°
2026-05-06 19:24 49.43336 -2.60688 309 ft 21 kts 280°
2026-05-06 19:24 49.43360 -2.60897 306 ft 19 kts 280°
2026-05-06 19:24 49.43361 -2.61024 304 ft 17 kts 268°
2026-05-06 19:25 49.43357 -2.61211 302 ft 8 kts 272°
2026-05-06 19:25 49.43360 -2.61237 301 ft 2 kts 286°
2026-05-06 19:25 49.43378 -2.61288 301 ft 10 kts 305°
2026-05-06 19:25 49.43434 -2.61353 300 ft 10 kts 354°
2026-05-06 19:26 49.43465 -2.61309 302 ft 11 kts 73°
2026-05-06 19:26 49.43481 -2.60884 308 ft 95 kts 87°
2026-05-06 19:26 49.43517 -2.59418 511 ft 156 kts 86°
2026-05-06 19:26 49.43603 -2.57667 1085 ft 176 kts 86°
2026-05-06 19:27 49.43629 -2.55622 1540 ft 206 kts 89°
2026-05-06 19:27 49.43669 -2.53274 2073 ft 227 kts 87°
2026-05-06 19:27 49.43864 -2.50906 3037 ft 223 kts 71°
2026-05-06 19:27 49.44804 -2.49027 3981 ft 220 kts 36°
2026-05-06 19:28 49.46226 -2.48023 4205 ft 231 kts 13°
2026-05-06 19:28 49.47762 -2.47510 4109 ft 227 kts
2026-05-06 19:28 49.49399 -2.46967 4023 ft 256 kts 11°
2026-05-06 19:28 49.51162 -2.46290 4019 ft 263 kts 12°
2026-05-06 19:29 49.52920 -2.45595 4019 ft 264 kts 12°
2026-05-06 19:29 49.54772 -2.44893 4647 ft 276 kts 12°
2026-05-06 19:29 49.56577 -2.44206 6203 ft 266 kts 12°
2026-05-06 19:29 49.58408 -2.43509 7240 ft 275 kts 12°
2026-05-06 19:30 49.60279 -2.42793 8474 ft 278 kts 12°
2026-05-06 19:30 49.62177 -2.42066 9629 ft 283 kts 12°
2026-05-06 19:30 49.64110 -2.41326 10627 ft 289 kts 12°
2026-05-06 19:30 49.66080 -2.40573 11593 ft 294 kts 12°
2026-05-06 19:31 49.68078 -2.39807 12547 ft 298 kts 12°
2026-05-06 19:31 49.70044 -2.38786 13243 ft 313 kts 26°
2026-05-06 19:31 49.73345 -2.33480 13507 ft 370 kts 52°
2026-05-06 19:32 49.74938 -2.30335 14301 ft 372 kts 50°
2026-05-06 19:32 49.76638 -2.27299 15046 ft 376 kts 47°
2026-05-06 19:32 49.78384 -2.24259 15751 ft 380 kts 48°
2026-05-06 19:32 49.80103 -2.21109 16483 ft 385 kts 49°
2026-05-06 19:33 49.81819 -2.17900 17215 ft 389 kts 49°
2026-05-06 19:33 49.83578 -2.14686 17957 ft 393 kts 49°
2026-05-06 19:33 49.85365 -2.11456 18701 ft 397 kts 49°
2026-05-06 19:33 49.87163 -2.08165 19447 ft 402 kts 49°
2026-05-06 19:34 49.88968 -2.04832 20193 ft 406 kts 49°
2026-05-06 19:34 49.90802 -2.01458 20926 ft 410 kts 49°
2026-05-06 19:34 49.92655 -1.98060 21621 ft 415 kts 49°
2026-05-06 19:34 49.94528 -1.94614 22305 ft 419 kts 49°
2026-05-06 19:35 49.96389 -1.91178 22958 ft 423 kts 49°
2026-05-06 19:35 49.98301 -1.87650 23600 ft 427 kts 49°
2026-05-06 19:35 50.00478 -1.84479 24138 ft 431 kts 36°
2026-05-06 19:35 50.03048 -1.82071 24787 ft 432 kts 26°
2026-05-06 19:36 50.05743 -1.79960 25370 ft 436 kts 25°
2026-05-06 19:36 50.08467 -1.77821 25957 ft 440 kts 26°
2026-05-06 19:36 50.11203 -1.75625 26516 ft 444 kts 27°
2026-05-06 19:36 50.13749 -1.72951 26942 ft 451 kts 37°
2026-05-06 19:37 50.16207 -1.69760 27004 ft 467 kts 39°
2026-05-06 19:37 50.18745 -1.66445 27008 ft 482 kts 39°
2026-05-06 19:37 50.21351 -1.63075 27011 ft 489 kts 39°
2026-05-06 19:37 50.23989 -1.59670 27007 ft 493 kts 39°
2026-05-06 19:38 50.26626 -1.56237 27007 ft 494 kts 39°
2026-05-06 19:38 50.29272 -1.52787 27010 ft 495 kts 39°
2026-05-06 19:38 50.31932 -1.49350 27007 ft 495 kts 38°
2026-05-06 19:38 50.34591 -1.45920 27005 ft 496 kts 38°
2026-05-06 19:39 50.37212 -1.42511 27007 ft 496 kts 39°
2026-05-06 19:39 50.39863 -1.39048 27006 ft 496 kts 39°
2026-05-06 19:39 50.42549 -1.35547 27006 ft 496 kts 39°
2026-05-06 19:39 50.45172 -1.32131 27005 ft 496 kts 39°
2026-05-06 19:40 50.47827 -1.28660 27007 ft 496 kts 39°
2026-05-06 19:40 50.50481 -1.25180 27007 ft 496 kts 39°
2026-05-06 19:40 50.53129 -1.21707 27007 ft 496 kts 39°
2026-05-06 19:40 50.55501 -1.18595 27007 ft 496 kts 39°
2026-05-06 19:41 50.57298 -1.16228 27006 ft 496 kts 39°
2026-05-06 19:41 50.59941 -1.12734 27008 ft 496 kts 39°
2026-05-06 19:41 50.62588 -1.09246 26971 ft 490 kts 39°
2026-05-06 19:41 50.65074 -1.05941 26387 ft 457 kts 40°
2026-05-06 19:42 50.67205 -1.02368 25809 ft 439 kts 50°
2026-05-06 19:42 50.69126 -0.98633 25242 ft 438 kts 50°
2026-05-06 19:42 50.71055 -0.94937 24667 ft 435 kts 50°
2026-05-06 19:42 50.72978 -0.91258 24094 ft 432 kts 50°
2026-05-06 19:43 50.74876 -0.87585 23518 ft 429 kts 50°
2026-05-06 19:43 50.76754 -0.83934 22957 ft 425 kts 50°
2026-05-06 19:43 50.78592 -0.80375 22404 ft 422 kts 50°
2026-05-06 19:43 50.80640 -0.77098 21828 ft 417 kts 38°
2026-05-06 19:44 50.83067 -0.74646 21299 ft 412 kts 25°
2026-05-06 19:44 50.85724 -0.73021 20773 ft 407 kts 17°
2026-05-06 19:44 50.88417 -0.71607 20243 ft 405 kts 17°
2026-05-06 19:44 50.91077 -0.70186 19709 ft 402 kts 17°
2026-05-06 19:45 50.93721 -0.68760 19180 ft 399 kts 17°
2026-05-06 19:45 50.96343 -0.67355 18656 ft 395 kts 17°
2026-05-06 19:45 50.98896 -0.65993 18148 ft 392 kts 17°
2026-05-06 19:45 51.01476 -0.64610 17628 ft 389 kts 17°
2026-05-06 19:46 51.04037 -0.63233 17118 ft 386 kts 17°
2026-05-06 19:46 51.06530 -0.61668 16599 ft 384 kts 24°
2026-05-06 19:46 51.08919 -0.59797 16109 ft 382 kts 25°
2026-05-06 19:46 51.11296 -0.57929 15605 ft 379 kts 25°
2026-05-06 19:47 51.13668 -0.56111 15106 ft 376 kts 24°
2026-05-06 19:47 51.16022 -0.54311 14609 ft 374 kts 24°
2026-05-06 19:47 51.18324 -0.52525 14123 ft 371 kts 25°
2026-05-06 19:47 51.20640 -0.50721 13635 ft 368 kts 25°
2026-05-06 19:48 51.22943 -0.48942 13146 ft 365 kts 24°
2026-05-06 19:48 51.25222 -0.47580 12680 ft 362 kts 17°
2026-05-06 19:48 51.27595 -0.46286 12197 ft 359 kts 19°
2026-05-06 19:48 51.29694 -0.44133 11679 ft 360 kts 41°
2026-05-06 19:49 51.31183 -0.40941 11215 ft 353 kts 62°
2026-05-06 19:49 51.31977 -0.37445 10808 ft 327 kts 72°
2026-05-06 19:49 51.32628 -0.34081 10394 ft 307 kts 72°
2026-05-06 19:49 51.33258 -0.30872 10025 ft 298 kts 72°
2026-05-06 19:50 51.33888 -0.27725 9663 ft 296 kts 71°
2026-05-06 19:50 51.34503 -0.24636 9289 ft 295 kts 72°
2026-05-06 19:50 51.35121 -0.21504 8904 ft 294 kts 72°
2026-05-06 19:50 51.35683 -0.18413 8511 ft 291 kts 77°
2026-05-06 19:51 51.35594 -0.15194 8107 ft 289 kts 102°
2026-05-06 19:51 51.35159 -0.12053 7787 ft 289 kts 103°
2026-05-06 19:51 51.34730 -0.08906 7416 ft 289 kts 102°
2026-05-06 19:51 51.34320 -0.05765 7032 ft 287 kts 102°
2026-05-06 19:52 51.34002 -0.02750 6645 ft 284 kts 94°
2026-05-06 19:52 51.34424 0.00301 6239 ft 282 kts 64°
2026-05-06 19:52 51.35607 0.02683 5893 ft 278 kts 37°
2026-05-06 19:52 51.37318 0.04007 5546 ft 273 kts 12°
2026-05-06 19:53 51.39190 0.04354 5238 ft 270 kts
2026-05-06 19:53 51.41055 0.04244 4818 ft 267 kts 343°
2026-05-06 19:53 51.42659 0.02876 4475 ft 259 kts 319°
2026-05-06 19:53 51.43710 0.00647 4146 ft 241 kts 294°
2026-05-06 19:54 51.44084 -0.01809 3847 ft 213 kts 274°
2026-05-06 19:54 51.44148 -0.04151 3585 ft 212 kts 272°
2026-05-06 19:54 51.44218 -0.06348 3377 ft 178 kts 272°
2026-05-06 19:54 51.44282 -0.08330 3146 ft 180 kts 272°
2026-05-06 19:55 51.44342 -0.10331 2930 ft 178 kts 272°
2026-05-06 19:55 51.44399 -0.12330 2803 ft 179 kts 272°
2026-05-06 19:55 51.44848 -0.14091 1648 ft 193 kts 322°
2026-05-06 19:55 51.46071 -0.14940 1266 ft 183 kts 343°
2026-05-06 19:56 51.47255 -0.14963 1086 ft 165 kts
2026-05-06 19:56 51.48366 -0.14615 1286 ft 165 kts
2026-05-06 19:56 51.49470 -0.13984 1339 ft 170 kts 25°
2026-05-06 19:56 51.50362 -0.12709 857 ft 173 kts 53°
2026-05-06 19:57 51.50894 -0.11102 668 ft 154 kts 72°
2026-05-06 19:57 51.50913 -0.09457 597 ft 144 kts 97°
2026-05-06 19:57 51.50812 -0.07908 1245 ft 145 kts 91°
2026-05-06 19:57 51.50803 -0.06207 1475 ft 156 kts 91°
2026-05-06 19:58 51.50636 -0.04472 1285 ft 160 kts 107°
2026-05-06 19:58 51.50532 -0.02745 589 ft 165 kts 53°
2026-05-06 19:58 51.50975 -0.01191 581 ft 151 kts 83°
2026-05-06 19:58 51.51049 0.00537 369 ft 152 kts 89°
2026-05-06 19:59 51.50939 0.02216 232 ft 150 kts 108°
2026-05-06 19:59 51.50581 0.03769 269 ft 143 kts 105°
2026-05-06 19:59 51.50542 0.05368 32 ft 136 kts 96°
2026-05-06 19:59 51.50498 0.06486 22 ft 56 kts 94°
2026-05-06 20:00 51.50499 0.06804 19 ft 5 kts 20°
2026-05-06 20:00 51.50524 0.06809 18 ft 0 kts 335°
2026-05-06 20:00 51.50524 0.06810 18 ft 0 kts 338°
2026-05-06 20:00 51.50495 0.06802 19 ft 5 kts 57°
2026-05-06 20:01 51.50479 0.06742 22 ft 10 kts 65°
2026-05-06 20:01 51.50465 0.06714 23 ft 0 kts 14°
2026-05-06 20:01 51.50476 0.06705 23 ft 3 kts 309°
2026-05-06 20:01 51.50477 0.06634 22 ft 9 kts 263°
2026-05-06 20:02 51.50432 0.06581 22 ft 9 kts 199°
2026-05-06 20:02 51.50409 0.06486 22 ft 11 kts 276°
2026-05-06 20:02 51.50415 0.06346 22 ft 13 kts 272°
2026-05-06 20:02 51.50421 0.06188 22 ft 15 kts 271°
2026-05-06 20:03 51.50422 0.06021 22 ft 15 kts 272°
2026-05-06 20:03 51.50425 0.05853 22 ft 16 kts 272°
2026-05-06 20:03 51.50435 0.05665 22 ft 18 kts 274°
2026-05-06 20:03 51.50440 0.05449 22 ft 20 kts 271°
2026-05-06 20:04 51.50442 0.05221 22 ft 21 kts 274°
2026-05-06 20:04 51.50458 0.05041 22 ft 14 kts 278°
2026-05-06 20:04 51.50463 0.04877 22 ft 15 kts 273°
2026-05-06 20:04 51.50471 0.04703 22 ft 16 kts 272°
2026-05-06 20:05 51.50475 0.04526 22 ft 11 kts 277°
2026-05-06 20:05 51.50486 0.04447 22 ft 8 kts 282°
2026-05-06 20:05 51.50488 0.04390 22 ft 1 kts 242°
2026-05-06 20:05 51.50475 0.04378 23 ft 2 kts 193°
2026-05-06 20:06 51.50458 0.04381 22 ft 2 kts 190°
2026-05-06 20:06 51.50452 0.04368 22 ft 0 kts 257°
2026-05-06 20:06 51.50452 0.04359 22 ft 4 kts 264°
2026-05-06 20:06 51.50454 0.04318 22 ft 3 kts 284°
2026-05-06 20:07 51.50453 0.04318 22 ft 1 kts 266°
2026-05-06 20:07 51.50452 0.04320 22 ft 1 kts 229°
2026-05-06 20:07 51.50453 0.04318 22 ft 0 kts 254°
2026-05-06 20:07 51.50455 0.04316 22 ft 0 kts 306°
2026-05-06 20:08 51.50453 0.04322 22 ft 0 kts 306°
2026-05-06 20:08 51.50455 0.04321 22 ft 2 kts 331°
2026-05-06 20:08 51.50463 0.04311 23 ft 0 kts 322°